Tracking 29892 objects as of 21-Nov-2024
HD Live streaming from Space Station
objects crossing your sky now

ONEWEB-0170

Track ONEWEB-0170 now!
10-day predictions
ONEWEB-0170 is classified as:


NORAD ID: 48067
Int'l Code: 2021-025AB
Perigee: 1,215.5 km
Apogee: 1,218.3 km
Inclination: 87.9 °
Period: 109.6 minutes
Semi major axis: 7587 km
RCS: Unknown
Launch date: March 25, 2021
Source: United States (US)
Launch site: VOSTOCHNY COSMODROME (VOSTO)
Your satellite tracking list
Your tracking list is empty




NASA's NSSDC Master Catalog

Two Line Element Set (TLE):
1 48067U 21025AB  24325.31052537  .00000300  00000-0  78530-3 0  9996
2 48067  87.8925  74.3748 0001832  84.8184 275.3154 13.13472548178210
Source of the keplerian elements: AFSPC